EW6553 Weather Reports


time (UTC)temp
C
wind
direction
speed
KPH
gust
KPH
rain 1hr
cm
rain 24hr
cm
rain mn
cm
humidity
%
barometer
mb
20260506112439 13 5 6.4 16.1 0.00 0.00 0.00 73 1012.5
20260506111940 13 344 4.8 14.5 0.00 0.00 0.00 73 1012.3
20260506111439 13 11 4.8 16.1 0.00 0.00 0.00 73 1012.1
20260506110939 13 55 4.8 16.1 0.00 0.00 0.00 73 1012.1
20260506110438 13 355 4.8 14.5 0.00 0.00 0.00 73 1012.1
20260506105938 13 82 4.8 12.9 0.00 0.00 0.00 73 1012.1
20260506105436 13 341 4.8 14.5 0.00 0.00 0.00 73 1011.8
20260506104936 13 350 4.8 14.5 0.00 0.00 0.00 73 1011.6
20260506104439 13 323 4.8 12.9 0.00 0.00 0.00 73 1011.7
20260506103933 13 350 6.4 20.9 0.00 0.00 0.00 73 1011.6
20260506103915 13 339 8.0 20.9 0.00 0.00 0.00 73 1011.6
20260506102931 13 336 6.4 16.1 0.00 0.00 0.00 73 1011.4
20260506102657 13 355 6.4 17.7 0.00 0.00 0.00 73 1011.3
20260506101930 13 355 4.8 17.7 0.00 0.00 0.00 73 1011.3
20260506101429 13 113 4.8 9.7 0.00 0.00 0.00 73 1011.0
20260506100923 13 0 4.8 12.9 0.00 0.00 0.00 73 1011.0
20260506100417 13 320 4.8 16.1 0.00 0.00 0.00 73 1011.0
20260506095911 13 337 4.8 16.1 0.00 0.00 0.00 73 1010.9
20260506095405 14 313 4.8 14.5 0.00 0.00 0.00 73 1010.7
20260506094901 14 355 4.8 14.5 0.00 0.00 0.00 73 1010.7
20260506094401 14 326 4.8 12.9 0.00 0.00 0.00 73 1010.6
20260506093902 14 325 6.4 16.1 0.00 0.00 0.00 73 1010.7
20260506093400 14 355 4.8 16.1 0.00 0.00 0.00 74 1010.8
20260506092901 14 348 3.2 9.7 0.00 0.00 0.00 74 1010.7
20260506092401 14 347 3.2 14.5 0.00 0.00 0.00 74 1010.5
20260506091901 14 344 3.2 14.5 0.00 0.00 0.00 74 1010.6
20260506091402 14 70 3.2 12.9 0.00 0.00 0.00 74 1010.5
20260506090900 14 335 4.8 12.9 0.00 0.00 0.00 74 1010.5
20260506090402 15 355 3.2 9.7 0.00 0.00 0.00 74 1010.5
20260506085901 15 311 3.2 8.0 0.00 0.00 0.00 74 1010.5
20260506085401 15 355 3.2 12.9 0.00 0.00 0.00 74 1010.4
20260506084901 15 351 4.8 12.9 0.00 0.00 0.00 74 1010.4
20260506084401 15 59 3.2 11.3 0.00 0.00 0.00 74 1010.4
20260506083901 15 355 3.2 11.3 0.00 0.00 0.00 74 1010.2
20260506083401 15 355 4.8 11.3 0.00 0.00 0.00 74 1010.2
20260506082901 15 340 3.2 11.3 0.00 0.00 0.00 74 1010.1
20260506082358 15 14 3.2 14.5 0.00 0.00 0.00 74 1010.2
20260506081853 15 348 4.8 14.5 0.00 0.00 0.00 74 1010.2
20260506081614 15 343 3.2 9.7 0.00 0.00 0.00 74 1010.2
20260506080840 15 342 3.2 9.7 0.00 0.00 0.00 74 1010.2
20260506080340 15 355 3.2 8.0 0.00 0.00 0.00 74 1010.1
20260506080109 15 355 3.2 12.9 0.00 0.00 0.00 74 1010.0
20260506073333 15 5 1.6 8.0 0.00 0.00 0.00 75 1009.6
20260506072831 15 101 1.6 8.0 0.00 0.00 0.00 75 1009.6
20260506072331 15 30 1.6 8.0 0.00 0.00 0.00 75 1009.6
20260506072320 15 355 3.2 8.0 0.00 0.00 0.00 75 1009.9
20260506071330 15 355 3.2 8.0 0.00 0.00 0.00 75 1010.0
20260506070833 15 64 3.2 8.0 0.00 0.00 0.00 75 1009.9
20260506070332 15 5 3.2 9.7 0.00 0.00 0.00 75 1009.9
20260506062323 16 34 3.2 9.7 0.00 0.00 0.00 75 1009.9
20260506062045 16 88 3.2 9.7 0.00 0.00 0.00 76 1009.9
20260506061540 16 5 3.2 12.9 0.00 0.00 0.00 76 1009.9
20260506061523 16 0 3.2 12.9 0.00 0.00 0.00 76 1009.8
20260506060323 16 30 3.2 12.9 0.00 0.00 0.00 76 1010.0
20260506051319 16 345 4.8 16.1 0.00 0.00 0.00 76 1009.8
20260506050819 16 0 6.4 16.1 0.00 0.00 0.00 76 1009.9
20260506050319 16 32 6.4 14.5 0.00 0.00 0.00 76 1009.8
20260506044817 17 350 6.4 16.1 0.00 0.00 0.00 75 1009.5
20260506044317 17 5 6.4 16.1 0.00 0.00 0.00 75 1009.5
20260506043817 17 355 4.8 16.1 0.00 0.00 0.00 75 1009.8
20260506043317 17 32 4.8 16.1 0.00 0.00 0.00 75 1009.6
20260506042817 17 355 6.4 16.1 0.00 0.00 0.00 75 1009.6
20260506042317 17 349 4.8 16.1 0.00 0.00 0.00 75 1009.8
20260506042048 17 336 4.8 16.1 0.00 0.00 0.00 74 1009.6
20260506041317 17 355 4.8 16.1 0.00 0.00 0.00 75 1009.6
20260506040817 17 11 8.0 19.3 0.00 0.00 0.00 74 1009.5
20260506040313 18 31 6.4 19.3 0.00 0.00 0.00 74 1009.5
20260506035813 18 344 6.4 19.3 0.00 0.00 0.00 74 1009.5
20260506035313 18 13 6.4 16.1 0.00 0.00 0.00 74 1009.3
20260506034812 18 331 6.4 17.7 0.00 0.00 0.00 73 1009.0
20260506034312 18 341 6.4 17.7 0.00 0.00 0.00 73 1009.0
20260506033812 18 60 4.8 12.9 0.00 0.00 0.00 73 1008.7
20260506033313 19 89 4.8 12.9 0.00 0.00 0.00 73 1008.6
20260506033044 19 311 4.8 12.9 0.00 0.00 0.00 73 1008.5
20260506032313 19 355 6.4 20.9 0.00 0.00 0.00 72 1008.5
20260506031808 19 307 4.8 20.9 0.00 0.00 0.00 72 1008.3
20260506031308 20 350 4.8 17.7 0.00 0.00 0.00 72 1008.3
20260506031039 20 346 4.8 17.7 0.00 0.00 0.00 72 1008.2
20260506030308 20 5 4.8 16.1 0.00 0.00 0.00 72 1008.3
20260506030039 20 351 4.8 16.1 0.00 0.00 0.00 71 1008.2
20260506025312 20 37 4.8 16.1 0.00 0.00 0.00 71 1008.1
20260506024812 20 5 4.8 16.1 0.00 0.00 0.00 71 1008.1
20260506024311 20 338 4.8 14.5 0.00 0.00 0.00 70 1007.9
20260506023815 20 346 4.8 16.1 0.00 0.00 0.00 70 1007.7
20260506023303 20 78 4.8 16.1 0.00 0.00 0.00 70 1007.7
20260506022802 20 40 4.8 17.7 0.00 0.00 0.00 69 1007.8
20260506022306 20 344 4.8 17.7 0.00 0.00 0.00 69 1007.5
20260506022254 20 307 6.4 19.3 0.00 0.00 0.00 69 1007.4
20260506021303 20 355 8.0 19.3 0.00 0.00 0.00 68 1007.4
20260506020803 20 340 6.4 19.3 0.00 0.00 0.00 68 1007.3
20260506020302 21 355 6.4 17.7 0.00 0.00 0.00 68 1007.2
20260506015803 21 5 6.4 16.1 0.00 0.00 0.00 69 1007.1
20260506015302 21 84 4.8 16.1 0.00 0.00 0.00 68 1006.7
20260506014803 21 350 4.8 16.1 0.00 0.00 0.00 69 1006.7
20260506014301 21 10 4.8 14.5 0.00 0.00 0.00 69 1006.4
20260506013803 21 346 4.8 14.5 0.00 0.00 0.00 68 1006.3
20260506013303 21 338 4.8 14.5 0.00 0.00 0.00 68 1006.4
20260506012800 22 11 4.8 14.5 0.00 0.00 0.00 68 1006.4
20260506012254 22 23 4.8 14.5 0.00 0.00 0.00 68 1006.3
20260506012241 22 315 3.2 12.9 0.00 0.00 0.00 68 1006.1
20260506011244 22 76 3.2 12.9 0.00 0.00 0.00 67 1006.1
20260506011018 22 5 3.2 9.7 0.00 0.00 0.00 67 1006.1
20260506010245 22 355 4.8 14.5 0.00 0.00 0.00 67 1006.3
20260506005743 22 31 3.2 14.5 0.00 0.00 0.00 67 1006.1
20260506005243 23 351 4.8 12.9 0.00 0.00 0.00 67 1005.9
20260506004741 23 355 4.8 12.9 0.00 0.00 0.00 66 1005.8
20260506004239 23 339 3.2 17.7 0.00 0.00 0.00 66 1005.8
20260506003739 23 0 4.8 17.7 0.00 0.00 0.00 66 1005.5
20260506003240 23 348 6.4 19.3 0.00 0.00 0.00 66 1005.3
20260506002736 24 331 6.4 19.3 0.00 0.00 0.00 65 1005.4
20260506002234 24 0 4.8 16.1 0.00 0.00 0.00 65 1005.3
20260506001733 24 348 4.8 16.1 0.00 0.00 0.00 64 1005.1
20260506001232 25 355 4.8 16.1 0.00 0.00 0.00 63 1005.2
20260506001004 25 325 6.4 16.1 0.00 0.00 0.00 63 1005.1
20260506000230 25 0 6.4 19.3 0.00 0.00 0.00 63 1005.0
20260505235730 25 355 6.4 19.3 0.00 0.00 0.00 62 1005.0
20260505235230 25 0 6.4 19.3 0.00 0.00 0.00 61 1005.0
20260505234954 26 324 6.4 19.3 0.00 0.00 0.00 62 1005.0
20260505234232 26 9 6.4 17.7 0.00 0.00 0.00 61 1004.8
20260505233952 26 339 6.4 19.3 0.00 0.00 0.00 60 1004.7
20260505233216 26 331 6.4 19.3 0.00 0.00 0.00 59 1004.7
20260505232943 27 340 6.4 19.3 0.00 0.00 0.00 58 1004.6
20260505232209 27 337 8.0 19.3 0.00 0.00 0.00 58 1004.7
20260505231708 27 315 6.4 19.3 0.00 0.00 0.00 58 1004.6
20260505231209 27 355 6.4 22.5 0.00 0.00 0.00 57 1004.4
20260505230709 28 344 6.4 22.5 0.00 0.00 0.00 56 1004.4
20260505230207 28 355 6.4 17.7 0.00 0.00 0.00 57 1004.4
20260505225706 29 350 6.4 16.1 0.00 0.00 0.00 56 1004.2
20260505225207 29 339 4.8 14.5 0.00 0.00 0.00 56 1004.0
20260505224706 30 351 4.8 12.9 0.00 0.00 0.00 53 1003.9
20260505224205 30 5 6.4 25.7 0.00 0.00 0.00 52 1003.7
20260505223705 30 338 8.0 25.7 0.00 0.00 0.00 51 1003.7
20260505223436 30 333 6.4 17.7 0.00 0.00 0.00 50 1003.8
20260505222705 30 315 4.8 16.1 0.00 0.00 0.00 50 1003.8
20260505222208 30 355 4.8 16.1 0.00 0.00 0.00 49 1003.7
20260505221703 31 355 6.4 16.1 0.00 0.00 0.00 49 1003.5
20260505221425 31 340 8.0 17.7 0.00 0.00 0.00 49 1003.6
20260505220702 31 22 6.4 19.3 0.00 0.00 0.00 49 1003.4
20260505220208 31 341 6.4 19.3 0.00 0.00 0.00 50 1003.4
20260505215927 32 16 8.0 19.3 0.00 0.00 0.00 48 1003.4
20260505215159 33 259 6.4 19.3 0.00 0.00 0.00 46 1003.3
20260505214656 33 263 6.4 12.9 0.00 0.00 0.00 46 1003.5
20260505214142 33 343 8.0 16.1 0.00 0.00 0.00 45 1003.5
20260505213906 33 257 9.7 22.5 0.00 0.00 0.00 45 1003.4
20260505213141 33 233 8.0 22.5 0.00 0.00 0.00 45 1003.3
20260505212913 33 256 6.4 14.5 0.00 0.00 0.00 48 1003.4
20260505212144 33 294 9.7 17.7 0.00 0.00 0.00 46 1003.4
20260505211642 33 214 9.7 17.7 0.00 0.00 0.00 47 1003.5
20260505211141 33 225 8.0 16.1 0.00 0.00 0.00 49 1003.6
20260505210639 33 281 8.0 16.1 0.00 0.00 0.00 49 1003.7
20260505210629 33 253 9.7 22.5 0.00 0.00 0.00 48 1003.7
20260505205637 33 240 11.3 22.5 0.00 0.00 0.00 48 1003.7
20260505205358 33 212 9.7 19.3 0.00 0.00 0.00 48 1003.8
20260505204637 33 285 8.0 17.7 0.00 0.00 0.00 49 1003.9
20260505204136 33 308 9.7 19.3 0.00 0.00 0.00 50 1003.9
20260505203636 32 241 8.0 19.3 0.00 0.00 0.00 52 1004.0
20260505203134 33 244 9.7 22.5 0.00 0.00 0.00 53 1004.0
20260505202633 32 228 11.3 22.5 0.00 0.00 0.00 52 1004.1
20260505202132 32 241 9.7 20.9 0.00 0.00 0.00 51 1004.2
20260505201633 32 229 9.7 22.5 0.00 0.00 0.00 51 1004.4
20260505201130 32 235 11.3 22.5 0.00 0.00 0.00 52 1004.2
20260505200628 32 297 11.3 22.5 0.00 0.00 0.00 52 1004.2
20260505200122 33 227 9.7 20.9 0.00 0.00 0.00 56 1004.5
20260505195621 32 222 9.7 20.9 0.00 0.00 0.00 54 1004.5
20260505195120 32 232 8.0 16.1 0.00 0.00 0.00 55 1004.4
20260505194842 32 248 8.0 16.1 0.00 0.00 0.00 58 1004.5
20260505194120 32 231 8.0 17.7 0.00 0.00 0.00 57 1004.5
20260505193620 31 244 11.3 22.5 0.00 0.00 0.00 57 1004.5
20260505193120 31 242 12.9 22.5 0.00 0.00 0.00 59 1004.5
20260505192620 31 237 12.9 24.1 0.00 0.00 0.00 59 1004.8
20260505192120 31 227 14.5 29.0 0.00 0.00 0.00 57 1004.6
20260505191620 31 234 16.1 29.0 0.00 0.00 0.00 61 1004.6
20260505191121 30 222 14.5 27.4 0.00 0.00 0.00 59 1004.6
20260505190620 31 181 11.3 24.1 0.00 0.00 0.00 59 1004.5
20260505190121 31 248 9.7 19.3 0.00 0.00 0.00 60 1004.6
20260505185619 30 234 11.3 19.3 0.00 0.00 0.00 62 1004.5
20260505185345 30 103 12.9 20.9 0.00 0.00 0.00 63 1004.8
20260505184620 30 217 12.9 22.5 0.00 0.00 0.00 62 1004.7
20260505184120 30 253 12.9 24.1 0.00 0.00 0.00 63 1004.8
20260505183843 29 237 11.3 25.7 0.00 0.00 0.00 64 1004.8
20260505183344 29 217 11.3 25.7 0.00 0.00 0.00 63 1004.8
20260505182616 29 243 12.9 20.9 0.00 0.00 0.00 65 1004.9
20260505182117 29 243 12.9 20.9 0.00 0.00 0.00 66 1004.8
20260505181617 29 244 12.9 22.5 0.00 0.00 0.00 65 1004.9
20260505181118 28 212 11.3 22.5 0.00 0.00 0.00 64 1004.9
20260505180620 28 239 12.9 25.7 0.00 0.00 0.00 66 1004.9
20260505180117 28 207 12.9 27.4 0.00 0.00 0.00 65 1005.0
20260505175616 28 225 14.5 27.4 0.00 0.00 0.00 66 1005.0
20260505175114 28 238 11.3 25.7 0.00 0.00 0.00 68 1005.0
20260505174614 28 223 9.7 24.1 0.00 0.00 0.00 66 1004.9
20260505174114 28 211 9.7 24.1 0.00 0.00 0.00 65 1005.0
20260505173610 28 234 12.9 27.4 0.00 0.00 0.00 67 1005.0
20260505173110 28 231 14.5 27.4 0.00 0.00 0.00 66 1005.0
20260505172610 28 246 14.5 25.7 0.00 0.00 0.00 66 1005.1
20260505172110 27 246 12.9 25.7 0.00 0.00 0.00 67 1005.1
20260505171609 27 209 11.3 22.5 0.00 0.00 0.00 67 1005.1
20260505171110 27 223 11.3 20.9 0.00 0.00 0.00 69 1005.4
20260505170610 27 243 11.3 20.9 0.00 0.00 0.00 67 1005.0
20260505170110 27 205 11.3 25.7 0.00 0.00 0.00 66 1005.1
20260505165610 27 226 12.9 27.4 0.00 0.00 0.00 66 1005.0
20260505165106 28 235 11.3 27.4 0.00 0.00 0.00 66 1004.9
20260505164606 28 233 11.3 24.1 0.00 0.00 0.00 68 1005.0
20260505164106 27 225 11.3 24.1 0.00 0.00 0.00 70 1005.0
20260505163606 26 213 11.3 24.1 0.00 0.00 0.00 71 1005.0
20260505163107 26 188 12.9 24.1 0.00 0.00 0.00 70 1005.0
20260505162606 26 249 12.9 24.1 0.00 0.00 0.00 71 1004.9
20260505162106 27 224 14.5 27.4 0.00 0.00 0.00 70 1004.9
20260505161606 26 224 16.1 27.4 0.00 0.00 0.00 71 1005.0
20260505161106 26 244 14.5 27.4 0.00 0.00 0.00 70 1005.0
20260505160602 26 228 12.9 29.0 0.00 0.00 0.00 71 1004.8
20260505153101 25 208 11.3 22.5 0.00 0.00 0.00 75 1004.5
20260505152600 25 217 11.3 22.5 0.00 0.00 0.00 75 1004.7
20260505152059 25 236 8.0 22.5 0.00 0.00 0.00 74 1004.8
20260505151823 25 219 11.3 29.0 0.00 0.00 0.00 75 1004.8
20260505151056 24 225 12.9 29.0 0.00 0.00 0.00 76 1004.9
20260505150556 24 200 12.9 25.7 0.00 0.00 0.00 77 1004.9
20260505150319 24 238 12.9 29.0 0.00 0.00 0.00 76 1004.8
20260505140538 23 180 12.9 29.0 0.00 0.00 0.00 80 1004.9
20260505125014 21 211 9.7 17.7 0.00 0.00 0.00 85 1004.1
20260505124511 21 217 9.7 20.9 0.00 0.00 0.00 85 1004.0
20260505124010 21 215 11.3 22.5 0.00 0.00 0.00 85 1004.0
20260505123726 21 205 11.3 22.5 0.00 0.00 0.00 85 1003.9
20260505123228 21 196 11.3 22.5 0.00 0.00 0.00 85 1003.9
20260505122505 21 219 11.3 22.5 0.00 0.00 0.00 85 1003.8
20260505122004 21 206 11.3 22.5 0.00 0.00 0.00 85 1003.8
20260505121503 21 209 11.3 24.1 0.00 0.00 0.00 85 1003.7
20260505121003 21 216 9.7 24.1 0.00 0.00 0.00 85 1003.6
20260505120503 21 227 11.3 19.3 0.00 0.00 0.00 85 1003.4
20260505120003 21 221 11.3 19.3 0.00 0.00 0.00 85 1003.5
20260505115501 21 146 11.3 22.5 0.00 0.00 0.00 85 1003.6
20260505115000 21 211 11.3 22.5 0.00 0.00 0.00 85 1003.7
20260505114504 21 192 11.3 20.9 0.00 0.00 0.00 85 1003.6
20260505114004 21 210 9.7 20.9 0.00 0.00 0.00 85 1003.6
20260505113507 21 210 11.3 22.5 0.00 0.00 0.00 85 1003.5
20260505113005 21 128 9.7 22.5 0.00 0.00 0.00 85 1003.5